Flag for Germany Weather past 2 weeks in Güstrow, Mecklenburg-Western Pomerania, Germany

Now
57 °F

Broken clouds.


Feels Like: 57 °F
Forecast: 54 / 65 °F
Wind: 5 mph from South

Location: Laage

Current Time: Aug 30, 2014 at 8:56:42 AM

Latest Report: Aug 30, 2014 at 8:20 AM


Visibility: N/A

Pressure: 29.95 "Hg

Humidity: 94%

Dew point: 55 °F

Location of GüstrowLocation

Historic Weather in Güstrow — Graph

°F

Güstrow temperature yesterday

Maximum temperature yesterday: 66 °F (at 1:20 PM)
Minimum temperature yesterday: 54 °F (at 1:20 AM)
Average temperature yesterday: 59 °F

Past Weeks' High & Low Weather Summary

 TemperatureHumidityPressure
High72 °F (Aug 28, 3:20 PM)100% (Aug 16, 5:20 AM)30.04 "Hg (Aug 16, 5:20 AM)
Low39 °F (Aug 26, 4:20 AM)38% (Aug 28, 3:20 PM)29.47 "Hg (Aug 18, 2:20 PM)
Average57 °F77%29.85 "Hg
* Reported Aug 15 7:20 AM — Aug 30 7:20 AM, Güstrow, Weather by CustomWeather, © 2014

Note: Actual official high and low records may vary slightly from our data, if they occured in-between our weather recording intervals... More about our weather records

Advertising

Güstrow weather history for previous 24 hours

 ConditionsComfort  
Time TempWeatherWind HumidityBarometerVisibility
7:20 AM
Aug 30
54 °FFog.2 mph100%29.98 "HgN/A
6:49 AM54 °FFog.5 mph100%29.95 "HgN/A
6:20 AM54 °FFog.3 mph100%29.98 "Hg0 mi
6:02 AM52 °FFog.2 mph100%29.95 "Hg0 mi
5:20 AM54 °FFog.1 mph94%29.95 "Hg1 mi
4:20 AM54 °FFog.1 mph94%29.95 "HgN/A
3:20 AM55 °FPassing clouds.5 mph100%29.95 "HgN/A
2:20 AM57 °FPassing clouds.2 mph94%29.95 "HgN/A
1:20 AM57 °FFog.6 mph100%29.98 "Hg2 mi
12:20 AM54 °FFog.No wind100%29.95 "Hg0 mi
11:59 PM
Aug 29
54 °FFog.No wind100%29.95 "Hg1 mi
11:20 PM55 °FFog.No wind94%29.95 "Hg1 mi
10:20 PM55 °FFog.2 mph100%29.95 "Hg1 mi
8:20 PM61 °FFog.2 mph94%29.92 "Hg4 mi
7:20 PM63 °FPartly sunny.2 mph94%29.92 "HgN/A
6:20 PM63 °FRain. Fog.6 mph94%29.92 "Hg2 mi
5:20 PM63 °FBroken clouds.6 mph94%29.92 "Hg6 mi
4:50 PM63 °FLight rain. Broken clouds.7 mph94%29.92 "Hg4 mi
4:20 PM63 °FRain. Fog.5 mph94%29.92 "Hg3 mi
3:59 PM63 °FDrizzle. Fog.6 mph94%29.92 "Hg2 mi
3:47 PM63 °FDrizzle. Fog.7 mph94%29.92 "Hg1 mi
3:20 PM64 °FScattered showers. Broken clouds.7 mph83%29.92 "Hg6 mi
2:20 PM66 °FBroken clouds.9 mph73%29.92 "HgN/A
1:20 PM66 °FPartly sunny.6 mph68%29.92 "HgN/A
12:20 PM64 °FPartly sunny.6 mph68%29.92 "HgN/A
11:20 AM63 °FPartly sunny.5 mph68%29.92 "HgN/A
10:20 AM63 °FPartly sunny.5 mph68%29.92 "HgN/A
9:20 AM61 °FBroken clouds.3 mph68%29.92 "HgN/A
8:20 AM59 °FBroken clouds.3 mph72%29.92 "HgN/A
Weather by CustomWeather, © 2014

See weather overviewHow to use our weather pages